STARLINK-11597, 63115

Orbit data source: Space-Track

STARLINK-11597, 63115 is a payload satellite owned by SpaceX/Seattle (US) in LEO that was launched on Thu, 27 Feb 2025 UTC via an FALCON 9 launch vehicle from the Air Force Eastern Test Range (AFETR). Payload-class satellites include a variety of spacecraft equipped with specific instruments for various scientific and technological missions. These include communications satellites like Starlink; space stations such as the ISS; scientific satellites like the Hubble; Earth observation satellites from companies like Planet Labs, Umbra, and HawkEye 360; GPS; miniature CubeSats for education and research; and military/defense satellites.

Loading next visibility...
Identifier
63115, 2025-039M
Orbit
LEO
Last TLE update
21 hours ago
Origin
Manufacturer
SpaceX/Seattle
Mission
Operational Commercial Communications
Bus & Motor
STARLINK V2M, Unknown motor
Mass
730 kg wet, ~700 kg dry
Launch date (UTC)
2025-02-27 (2 months ago)
Launch vehicle
FALCON 9
Launch site
Air Force Eastern Test Range (AFETR)
Object type
Payload
Rocket body
Debris
Shape & HBR
Box + 2 Pan, 29 m
Radar Cross Section
36.964 m², Large (>1 m²)

Expand to show TLE details & history

TLE from 21 hours ago
0 STARLINK-11597
1 63115U 25039M   25128.43635707  .00000588  00000-0  62469-5 0  9991
2 63115  42.9990 278.0083 0001916 278.7444  81.3209 15.77849970 11598
Epoch: 2025-05-08T10:28Z
Definitive object data (Epoch: 2025-05-08T10:28:21.25Z)
Latitude
-0.00005°
Longitude
-105.58717°
Altitude
336.11 km
Speed
7.709 km/s
True Right ascension
18h 32m 01s
True Declination
0° 00' 00"
Sunlit
Object was in full shadow at TLE epoch
Visualization TLE readout
Latitude
-24.33385°
Longitude
97.99806°
Altitude
341.935 km
Speed
7.705 km/s
Apparent Right ascension
06h 00m 22s
Apparent Declination
-37° 22' 44"
Sunlit
Object is in daylight
Visualization observer readout
Local Sidereal Time
15:17:10
Azimuth
261.28° W
Elevation
-58.311°
Doppler factor
1
Orbital elements
Apogee altitude
339.808 km
Perigee altitude
337.234 km
Semi-major axis
6,716.658 km
Eccentricity
0.0001916
Inclination
42.999°
RAAN
278.0083°
Arg. of periapsis
278.7444°
True anomaly
81.34261°
Mean anomaly
81.3209°
Eccentric anomaly
81.33175°
Mean motion
3.94288 °/min
BSTAR
0.0000062469
Orbital period
91.3 mins
Loading maneuver chart data...
Loading SW <> Apogee altitude chart data...
Loading historical data...
Loading historical data...
Loading historical data...
Loading historical data...
Loading historical data...
Loading historical data...
Loading historical data...

STARLINK-11597 Visibility forecast

Observer location: undefined°, undefined°

Span
Click to sort rows by Start time (UTC) header in descending order
Start Az.
Max El. time (UTC)
Max El. Az.
Max El.
End time (UTC)
End Az.
4 mins2025-05-09 14:05:13.695Z250.265° W2025-05-09 14:07:13.695Z73.354° E39.827°2025-05-09 14:09:13.695Z72.024° E
4 mins2025-05-09 15:41:13.695Z300.331° NW2025-05-09 15:42:13.695Z337.531° N32.556°2025-05-09 15:45:13.695Z71.737° E
|